[[{"header":{"parameterUnit":"m.s-1","parameterCategory":1,"la1":30.2991,"la2":30.254,"lo1":-89.0895,"lo2":-89.0444,"dy":0.0017,"dx":0.0017,"nx":28,"ny":28,"refTime":"2024-12-24T09:00:00:Z","depth":0,"parameterNumber":2,"parameterNumberName":"U-component_of_WINDS"},"data":[0,0,0,0,0,0,0,0,0,0,0,0,0,0,0,0,0,0,0,0,0,0,0,0,0,0,0,0,0,0,0,0,0,0,0,0,0,0,0,0,0,0,0,0,0,0,0,0,0,0,0,0,0,0,0,0,0,0,-3.929,-3.9291,0,-3.9355,-3.9356,-3.9357,-3.9232,-3.9228,-3.9224,-3.922,-3.9291,-3.9297,-3.9302,0,0,0,0,0,0,0,0,0,0,0,0,0,-3.9063,-3.9067,-3.929,-3.9291,-3.9292,-3.9355,-3.9356,-3.9357,-3.9233,-3.9228,-3.9223,-3.9218,-3.9289,-3.9296,-3.9303,0,0,0,0,0,0,0,0,0,0,0,0,0,-3.9148,-3.9069,-3.929,-3.9237,-3.9233,-3.9355,-3.9356,-3.9357,-3.9234,-3.9228,-3.9222,-3.9216,-3.9287,-3.9295,-3.9304,-3.9481,0,0,-3.933,-3.9334,0,0,0,0,0,0,0,0,-3.9143,-3.9157,-3.9244,-3.9241,-3.9237,-3.9279,-3.9301,-3.9399,-3.9236,-3.9234,-3.922,-3.9213,-3.9292,-3.93,-3.9326,-3.9484,-3.9487,-3.9331,-3.9336,-3.934,-3.9342,0,0,0,0,0,0,0,-3.9138,-3.9153,-3.9316,-3.9246,-3.9241,-3.9212,-3.9217,-3.9319,-3.9297,-3.9234,-3.9225,-3.9234,-3.9289,-3.9318,-3.9327,-3.9488,-3.9331,-3.9338,-3.9343,-3.9347,-3.9796,-3.9802,0,0,0,0,0,0,-3.9138,-3.9149,-3.9314,-3.9318,-3.9174,-3.9221,-3.9227,-3.9272,-3.9296,-3.9293,-3.9239,-3.9228,-3.9306,-3.9317,-3.9329,-3.9539,-3.934,-3.9348,-3.9353,-3.9789,-3.9797,-3.9804,0,0,0,0,0,0,-3.9133,-3.9154,-3.9311,-3.9231,-3.9249,-3.9231,-3.9283,-3.9277,-3.9305,-3.93,-3.9296,-3.9273,-3.9302,-3.9317,-3.9444,-3.9539,-3.9352,-3.9359,-3.9781,-3.9791,-3.9801,-3.996,0,0,0,0,0,0,-3.9127,-3.9153,-3.9219,-3.9233,-3.9254,-3.9425,-3.9289,-3.9282,-3.932,-3.9306,-3.933,-3.9328,-3.9298,-3.9432,-3.9452,-3.9548,-3.9366,-3.9772,-3.9786,-3.9797,-3.9946,-3.9974,-3.9998,0,0,0,0,0,-3.912,-3.9262,-3.9223,-3.9244,-3.9336,-3.943,-3.9442,-3.9403,-3.9328,-3.9395,-3.9392,-3.9327,-3.9525,-3.9446,-3.9468,-3.9568,-3.9766,-3.9782,-3.9797,-3.9934,-3.9968,-3.9997,0,0,0,0,0,0,-3.926,-3.9263,-3.922,-3.937,-3.9401,-3.9409,-3.9492,-3.9441,-3.9494,-3.9479,-3.943,-3.9437,-3.9574,-3.9583,-3.9494,-3.974,-3.9633,-3.9654,-3.973,-3.9763,-3.9788,-3.9784,-3.9373,0,0,0,0,0,-3.9309,-3.9384,-3.9382,-3.9515,-3.9533,-3.9511,-3.955,-3.9518,-3.9548,-3.9561,-3.9566,-3.9599,-3.9669,-3.9716,-3.9779,-3.9945,-3.995,-4.0025,-4.0051,-4.0073,-4.0092,-4.0182,-4.0216,-3.9854,-3.9854,-3.9854,0,0,-3.941,-3.942,-3.9471,-3.9544,-3.9564,-3.9645,-3.9522,-3.9612,-3.9672,-3.9574,-3.9695,-3.9701,-3.9734,-3.9882,-3.9947,-3.9894,-4.0192,-4.0092,-4.0109,-4.0117,-4.0201,-4.0235,-4.0266,-3.9865,-3.9863,-3.9861,0,0,-3.9636,-3.9651,-3.9764,-3.9786,-3.9817,-3.9801,-3.9828,-3.9844,-3.9844,-3.9964,-3.9892,-3.9963,-4.0083,-4.0111,-4.014,-4.0377,-4.032,-4.0399,-4.0536,-4.0625,-4.0653,-4.0678,-4.0764,-4.0796,-4.0417,-4.0418,-4.0418,0,-3.9758,-3.9876,-3.9829,-3.9924,-3.9959,-3.9873,-3.9988,-4.0012,-4.0063,-4.009,-4.0028,-4.0178,-4.0195,-4.0348,-4.0406,-4.0432,-4.0463,-4.0397,-4.0652,-4.0677,-4.07,-4.0782,-4.0814,-4.0427,-4.0426,-4.0425,-4.0424,0,-4.0026,-4.0108,-4.0196,-4.0246,-4.0291,-4.0396,-4.0366,-4.0417,-4.0381,-4.0372,-4.0496,-4.0512,-4.0578,-4.0612,-4.0577,-4.0761,-4.0727,-4.066,-4.0552,-4.0745,-4.0821,-4.0852,-4.0441,-4.0437,-4.0434,-4.0432,0,0,-4.0344,-4.0366,-4.04,-4.0422,-4.045,-4.0513,-4.0615,-4.0678,-4.0723,-4.0761,-4.0846,-4.095,-4.0888,-4.0922,-4.0889,-4.0967,-4.1156,-4.089,-4.089,-4.0941,-4.1362,-4.1414,-4.1451,-4.1117,-4.1123,-4.1127,-4.1359,0,-4.0569,-4.0743,-4.0704,-4.0876,-4.0952,-4.0871,-4.096,-4.0987,-4.0982,-4.1047,-4.104,-4.1116,-4.1027,-4.1047,-4.112,-4.1117,-4.124,-4.1099,-4.1198,-4.1202,-4.1195,-4.149,-4.1545,-4.1764,-4.1389,-4.1394,-4.1397,0,-4.0856,-4.0904,-4.1084,-4.1099,-4.113,-4.121,-4.1266,-4.1328,-4.1358,-4.1348,-4.1386,-4.1339,-4.1441,-4.133,-4.1471,-4.1377,-4.1414,-4.1419,-4.1427,-4.1437,-4.1313,-4.151,-4.1832,-4.1866,-4.1443,-4.144,-4.1436,0,-4.1073,-4.1182,-4.1304,-4.1325,-4.1346,-4.1405,-4.1417,-4.144,-4.1481,-4.1529,-4.1556,-4.1616,-4.165,-4.1698,-4.1669,-4.159,-4.1816,-4.1702,-4.1813,-4.1814,-4.1866,-4.1864,-4.2201,-4.1887,-4.1887,-4.1886,-4.1885,0,-4.133,-4.1444,-4.1402,-4.1477,-4.1602,-4.1556,-4.1682,-4.1684,-4.1706,-4.1781,-4.1714,-4.1787,-4.1743,-4.1812,-4.179,-4.1911,-4.1926,-4.1923,-4.1916,-4.1931,-4.1932,-4.1956,-4.1942,-4.1895,-4.1893,-4.1891,-4.1889,0,-4.1595,-4.1571,-4.1698,-4.1707,-4.1712,-4.1805,-4.1813,-4.1884,-4.1872,-4.1968,-4.1988,-4.1972,-4.205,-4.2025,-4.2109,-4.2094,-4.2249,-4.2222,-4.2239,-4.2233,-4.2347,-4.2337,-4.2714,-4.2762,-4.2415,-4.2418,-4.2421,0,-4.1762,-4.1847,-4.1865,-4.191,-4.1927,-4.2,-4.2041,-4.1999,-4.2045,-4.2085,-4.2152,-4.2224,-4.2279,-4.2408,-4.2405,-4.2469,-4.2444,-4.2572,-4.2454,-4.2466,-4.2449,-4.2445,-4.2455,-4.2596,-4.26,-4.2604,-4.2606,0,-4.2062,-4.2045,-4.2106,-4.2164,-4.2214,-4.2258,-4.2295,-4.2337,-4.2297,-4.2352,-4.2431,-4.2474,-4.2559,-4.2633,-4.2691,-4.2704,-4.2651,-4.2643,-4.2672,-4.2689,-4.2697,-4.2696,-4.2306,-4.2635,-4.2632,-4.263,-4.2629,-4.2627,-4.2284,-4.2356,-4.2381,-4.2451,-4.2475,-4.2511,-4.2579,-4.2575,-4.2639,-4.2705,-4.2677,-4.2768,-4.2796,-4.2869,-4.289,-4.2962,-4.2913,-4.2955,-4.2966,-4.2978,-4.2994,-4.2683,-4.2972,-4.2971,-4.297,-4.2969,-4.2969,0,-4.2582,-4.2593,-4.2658,-4.2713,-4.2769,-4.271,-4.2749,-4.28,-4.2881,-4.2911,-4.2967,-4.3058,-4.3128,-4.313,-4.3196,-4.3253,-4.323,-4.3272,-4.3269,-4.3273,-4.3032,-4.3001,-4.329,-4.329,-4.329,-4.329,-4.329,-4.329,-4.2744,-4.2864,-4.2851,-4.2983,-4.2993,-4.3081,-4.3108,-4.3142,-4.3166,-4.3271,-4.3328,-4.3328,-4.3347,-4.3414,-4.3477,-4.3476,-4.3504,-4.3556,-4.3546,-4.3322,-4.329,-4.326,-4.323,-4.3562,-4.3563,-4.3781,-4.3783,-4.3785]},{"header":{"parameterUnit":"m.s-1","parameterCategory":1,"la1":30.2991,"la2":30.254,"lo1":-89.0895,"lo2":-89.0444,"dy":0.0017,"dx":0.0017,"nx":28,"ny":28,"refTime":"2024-12-24T09:00:00:Z","depth":0,"parameterNumber":3,"parameterNumberName":"V-component_of_WINDS"},"data":[0,0,0,0,0,0,0,0,0,0,0,0,0,0,0,0,0,0,0,0,0,0,0,0,0,0,0,0,0,0,0,0,0,0,0,0,0,0,0,0,0,0,0,0,0,0,0,0,0,0,0,0,0,0,0,0,0,0,-1.8311,-1.8311,0,-1.8308,-1.8308,-1.8308,-1.8285,-1.8285,-1.8284,-1.8284,-1.828,-1.8281,-1.8281,0,0,0,0,0,0,0,0,0,0,0,0,0,-1.8296,-1.8296,-1.8311,-1.8311,-1.8311,-1.8308,-1.8308,-1.8308,-1.8285,-1.8285,-1.8284,-1.8283,-1.828,-1.8281,-1.8281,0,0,0,0,0,0,0,0,0,0,0,0,0,-1.8299,-1.8296,-1.8311,-1.8299,-1.8298,-1.8308,-1.8308,-1.8308,-1.8286,-1.8285,-1.8284,-1.8283,-1.828,-1.8281,-1.8281,-1.8302,0,0,-1.8283,-1.8283,0,0,0,0,0,0,0,0,-1.8298,-1.8299,-1.8301,-1.83,-1.8299,-1.8296,-1.8301,-1.8306,-1.8286,-1.829,-1.8284,-1.8283,-1.8286,-1.8286,-1.8288,-1.8301,-1.8301,-1.8283,-1.8284,-1.8284,-1.8284,0,0,0,0,0,0,0,-1.8298,-1.8299,-1.8309,-1.8301,-1.83,-1.8294,-1.8293,-1.8302,-1.8293,-1.829,-1.8288,-1.8288,-1.8285,-1.8287,-1.8287,-1.8301,-1.8283,-1.8284,-1.8284,-1.8284,-1.833,-1.8331,0,0,0,0,0,0,-1.83,-1.8299,-1.831,-1.8309,-1.8297,-1.8295,-1.8294,-1.8298,-1.8293,-1.8291,-1.8289,-1.8287,-1.8286,-1.8287,-1.8287,-1.831,-1.8284,-1.8285,-1.8285,-1.833,-1.8331,-1.8332,0,0,0,0,0,0,-1.83,-1.8301,-1.831,-1.8304,-1.8304,-1.8296,-1.83,-1.8298,-1.83,-1.8292,-1.829,-1.8292,-1.8286,-1.8286,-1.8298,-1.8309,-1.8285,-1.8285,-1.8329,-1.833,-1.8331,-1.8356,0,0,0,0,0,0,-1.8299,-1.8301,-1.8309,-1.8304,-1.8305,-1.8321,-1.8301,-1.8299,-1.8301,-1.8298,-1.8295,-1.8293,-1.8285,-1.8297,-1.8299,-1.831,-1.8286,-1.8328,-1.8329,-1.8331,-1.8354,-1.8358,-1.8361,0,0,0,0,0,-1.8299,-1.8316,-1.831,-1.8311,-1.8315,-1.8322,-1.8322,-1.8313,-1.8302,-1.8309,-1.8304,-1.8293,-1.8308,-1.8299,-1.83,-1.8312,-1.8327,-1.8329,-1.8331,-1.8352,-1.8357,-1.8361,0,0,0,0,0,0,-1.8323,-1.8315,-1.8308,-1.8324,-1.8324,-1.8318,-1.8327,-1.8318,-1.832,-1.8318,-1.8306,-1.8305,-1.8319,-1.8316,-1.8306,-1.833,-1.8315,-1.8318,-1.8331,-1.8336,-1.8339,-1.8339,-1.8286,0,0,0,0,0,-1.833,-1.8337,-1.833,-1.8345,-1.8345,-1.8336,-1.8339,-1.8332,-1.833,-1.833,-1.8326,-1.8325,-1.8329,-1.8333,-1.8336,-1.8354,-1.8352,-1.8362,-1.8366,-1.8369,-1.8371,-1.8379,-1.8383,-1.8338,-1.8338,-1.8338,0,0,-1.8345,-1.8342,-1.8347,-1.835,-1.8348,-1.8355,-1.8336,-1.8344,-1.8349,-1.8331,-1.8342,-1.8339,-1.8337,-1.8351,-1.8358,-1.835,-1.8383,-1.8371,-1.8374,-1.8374,-1.8381,-1.8385,-1.8389,-1.8339,-1.8339,-1.8339,0,0,-1.8376,-1.8374,-1.8386,-1.8385,-1.8383,-1.8377,-1.838,-1.8375,-1.8372,-1.8383,-1.837,-1.8375,-1.8383,-1.8382,-1.8382,-1.8411,-1.8401,-1.8413,-1.8431,-1.8439,-1.8443,-1.8446,-1.8456,-1.8459,-1.8415,-1.8415,-1.8415,0,-1.8394,-1.8404,-1.8393,-1.8402,-1.8403,-1.8387,-1.8399,-1.8399,-1.8398,-1.8399,-1.839,-1.8399,-1.8397,-1.8411,-1.8418,-1.8419,-1.8421,-1.8413,-1.8443,-1.8446,-1.8449,-1.8458,-1.8462,-1.8416,-1.8416,-1.8416,-1.8416,0,-1.8427,-1.8434,-1.8443,-1.8443,-1.8445,-1.8456,-1.8446,-1.845,-1.8442,-1.8437,-1.8447,-1.8443,-1.8446,-1.8448,-1.8441,-1.8461,-1.8456,-1.8445,-1.843,-1.8455,-1.8463,-1.8467,-1.8418,-1.8418,-1.8417,-1.8417,0,0,-1.8473,-1.8466,-1.847,-1.8469,-1.8465,-1.847,-1.8479,-1.8481,-1.8484,-1.8484,-1.8491,-1.8497,-1.8487,-1.8488,-1.848,-1.8487,-1.851,-1.8476,-1.8476,-1.8482,-1.853,-1.8538,-1.8542,-1.8503,-1.8503,-1.8504,-1.853,0,-1.8502,-1.8517,-1.8507,-1.8524,-1.8529,-1.8514,-1.8521,-1.852,-1.8515,-1.8519,-1.8513,-1.8518,-1.8505,-1.8505,-1.8511,-1.8506,-1.8519,-1.8504,-1.8508,-1.8509,-1.8509,-1.8546,-1.8554,-1.8579,-1.8533,-1.8534,-1.8534,0,-1.8537,-1.8538,-1.8556,-1.855,-1.8552,-1.8559,-1.8559,-1.8563,-1.8561,-1.8557,-1.8557,-1.8547,-1.8555,-1.854,-1.855,-1.854,-1.8541,-1.8539,-1.8539,-1.8539,-1.8523,-1.8546,-1.8587,-1.859,-1.8539,-1.8539,-1.8539,0,-1.8568,-1.8574,-1.8585,-1.8585,-1.8578,-1.8584,-1.8581,-1.8578,-1.8579,-1.858,-1.8581,-1.8582,-1.8583,-1.8584,-1.8574,-1.8564,-1.8586,-1.857,-1.8582,-1.8582,-1.8587,-1.8587,-1.8627,-1.8589,-1.8588,-1.8588,-1.8588,0,-1.8601,-1.8612,-1.8598,-1.8605,-1.8616,-1.8605,-1.8616,-1.8612,-1.8609,-1.8614,-1.8601,-1.8606,-1.8594,-1.8597,-1.859,-1.8599,-1.8599,-1.8596,-1.8594,-1.8597,-1.8597,-1.8597,-1.8595,-1.8589,-1.8589,-1.8589,-1.8589,0,-1.8638,-1.8629,-1.864,-1.8633,-1.8631,-1.864,-1.8633,-1.8639,-1.8633,-1.8639,-1.864,-1.8631,-1.8634,-1.8625,-1.8627,-1.8622,-1.8635,-1.863,-1.8636,-1.8634,-1.8646,-1.8645,-1.8688,-1.8693,-1.8652,-1.8652,-1.8652,0,-1.8659,-1.8667,-1.8661,-1.8663,-1.8661,-1.8665,-1.8667,-1.8655,-1.8657,-1.8654,-1.866,-1.8662,-1.8663,-1.8669,-1.8663,-1.8664,-1.8659,-1.8674,-1.8659,-1.8661,-1.8658,-1.8658,-1.8658,-1.8677,-1.8677,-1.8678,-1.8678,0,-1.8698,-1.8693,-1.8695,-1.8696,-1.8698,-1.8698,-1.8697,-1.87,-1.8687,-1.869,-1.8693,-1.8694,-1.8696,-1.8698,-1.8697,-1.8695,-1.8684,-1.8683,-1.8685,-1.8688,-1.8691,-1.8689,-1.8644,-1.8682,-1.8681,-1.8681,-1.8681,-1.8681,-1.8727,-1.8733,-1.8729,-1.8732,-1.873,-1.8729,-1.8733,-1.8728,-1.873,-1.8731,-1.8724,-1.8728,-1.8724,-1.8723,-1.8721,-1.8724,-1.8717,-1.8721,-1.8722,-1.8723,-1.8725,-1.8691,-1.8724,-1.8724,-1.8724,-1.8724,-1.8723,0,-1.8764,-1.8761,-1.8763,-1.8762,-1.8764,-1.8754,-1.8752,-1.8755,-1.8759,-1.8756,-1.8757,-1.8761,-1.8762,-1.8755,-1.8756,-1.876,-1.8755,-1.876,-1.876,-1.8759,-1.8731,-1.8729,-1.8764,-1.8764,-1.8764,-1.8764,-1.8764,-1.8764,-1.8784,-1.8793,-1.8787,-1.8795,-1.8791,-1.8795,-1.8795,-1.8794,-1.8792,-1.8796,-1.8797,-1.8793,-1.8788,-1.8788,-1.8789,-1.8787,-1.8788,-1.8795,-1.8791,-1.8765,-1.8761,-1.8757,-1.8755,-1.8795,-1.8795,-1.8818,-1.8818,-1.8819]}]]